QPF
0.00 0.00 0.00 0.00 0.00 0.00 0.00 0.00 0.00 0.00 0.00 0.00 0.00 0.00 0.00 0.00 0.00 0.00 0.00 0.00 0.00 0.00 0.00 0.00 0.00 0.00 0.00 0.00 0.00 0.00 0.00 0.00 0.00 0.00 0.00 0.00 0.00 0.00 0.00 0.00 0.03 0.07 0.17 0.02 0.00
0.00 0.00 0.00 0.00 0.00 0.00 0.00 0.00 0.00 0.00 0.00 0.00 0.00 0.00 0.00 0.00 0.00 0.00 0.00 0.00 0.00 0.00 0.00 0.00 0.00 0.00 0.00 0.00 0.00 0.00 0.00 0.00 0.00 0.00 0.00 0.00 0.00 0.00 0.00 0.01 0.08 0.26 0.22 0.01 0.00
0.00 0.00 0.00 0.00 0.00 0.00 0.00 0.00 0.00 0.00 0.00 0.00 0.00 0.00 0.00 0.00 0.00 0.00 0.00 0.00 0.00 0.00 0.00 0.00 0.00 0.00 0.00 0.00 0.00 0.00 0.00 0.00 0.00 0.00 0.00 0.00 0.00 0.00 0.01 0.07 0.07 0.38 0.68 0.02 0.00
0.00 0.00 0.00 0.00 0.00 0.00 0.00 0.00 0.00 0.00 0.00 0.00 0.00 0.00 0.00 0.00 0.00 0.00 0.00 0.00 0.00 0.00 0.00 0.00 0.00 0.00 0.00 0.00 0.00 0.00 0.00 0.00 0.00 0.00 0.00 0.00 0.00 0.00 0.00 0.00 0.00 0.04 0.03 0.00 0.00
0.00 0.00 0.00 0.00 0.00 0.00 0.00 0.00 0.00 0.00 0.00 0.00 0.00 0.00 0.00 0.00 0.00 0.00 0.00 0.00 0.00 0.00 0.00 0.00 0.00 0.00 0.00 0.00 0.00 0.00 0.00 0.00 0.00 0.00 0.00 0.00 0.00 0.00 0.00 0.00 0.00 0.00 0.00 0.00 0.00
0.00 0.00 0.00 0.00 0.00 0.00 0.00 0.00 0.00 0.00 0.00 0.00 0.00 0.00 0.00 0.00 0.00 0.00 0.00 0.00 0.00 0.00 0.00 0.00 0.00 0.00 0.00 0.00 0.00 0.00 0.00 0.00 0.00 0.00 0.00 0.00 0.00 0.00 0.00 0.00 0.00 0.00 0.00 0.00 0.00
0.00 0.00 0.00 0.00 0.00 0.00 0.00 0.00 0.00 0.00 0.00 0.00 0.00 0.00 0.00 0.00 0.00 0.00 0.00 0.00 0.00 0.00 0.00 0.00 0.00 0.00 0.00 0.00 0.00 0.00 0.00 0.00 0.00 0.00 0.00 0.00 0.00 0.00 0.00 0.00 0.00 0.00 0.00 0.00 0.00
0.00 0.00 0.00 0.00 0.00 0.00 0.00 0.00 0.00 0.00 0.00 0.00 0.00 0.00 0.00 0.00 0.00 0.00 0.00 0.00 0.00 0.00 0.00 0.00 0.00 0.00 0.00 0.00 0.00 0.00 0.00 0.00 0.00 0.00 0.00 0.00 0.00 0.00 0.00 0.00 0.00 0.00 0.00 0.00 0.00
0.00 0.00 0.00 0.00 0.00 0.00 0.00 0.00 0.00 0.00 0.00 0.00 0.00 0.00 0.00 0.00 0.00 0.00 0.00 0.00 0.00 0.00 0.00 0.00 0.00 0.00 0.00 0.00 0.00 0.00 0.00 0.00 0.00 0.00 0.00 0.00 0.00 0.00 0.00 0.00 0.00 0.00 0.00 0.00 0.00
0.00 0.00 0.00 0.00 0.00 0.00 0.00 0.00 0.00 0.00 0.00 0.00 0.00 0.00 0.00 0.00 0.00 0.00 0.00 0.00 0.00 0.00 0.00 0.00 0.00 0.00 0.00 0.00 0.00 0.00 0.00 0.00 0.00 0.00 0.00 0.00 0.00 0.00 0.00 0.00 0.00 0.00 0.00 0.00 0.00
0.00 0.00 0.00 0.00 0.00 0.00 0.00 0.00 0.00 0.00 0.00 0.00 0.00 0.00 0.00 0.00 0.00 0.00 0.00 0.00 0.00 0.00 0.00 0.00 0.00 0.00 0.00 0.00 0.00 0.00 0.00 0.00 0.00 0.00 0.00 0.00 0.00 0.00 0.00 0.00 0.00 0.00 0.00 0.00 0.00
0.00 0.00 0.00 0.00 0.00 0.00 0.00 0.00 0.00 0.00 0.00 0.00 0.00 0.00 0.00 0.00 0.00 0.00 0.00 0.00 0.00 0.00 0.00 0.00 0.00 0.00 0.00 0.00 0.00 0.00 0.00 0.00 0.00 0.00 0.00 0.00 0.00 0.00 0.00 0.00 0.00 0.00 0.00 0.00 0.00
0.00 0.00 0.00 0.00 0.00 0.00 0.00 0.00 0.00 0.00 0.00 0.00 0.00 0.00 0.00 0.00 0.00 0.00 0.00 0.00 0.00 0.00 0.00 0.00 0.00 0.00 0.00 0.00 0.00 0.00 0.00 0.00 0.00 0.00 0.00 0.00 0.00 0.00 0.00 0.00 0.00 0.00 0.00 0.00 0.00
0.00 0.00 0.00 0.00 0.00 0.00 0.00 0.00 0.00 0.00 0.00 0.00 0.00 0.00 0.00 0.00 0.00 0.00 0.00 0.00 0.00 0.00 0.00 0.00 0.00 0.00 0.00 0.00 0.00 0.00 0.00 0.00 0.00 0.00 0.00 0.00 0.00 0.00 0.00 0.00 0.00 0.00 0.00 0.00 0.00
0.00 0.00 0.00 0.00 0.00 0.00 0.00 0.00 0.00 0.00 0.00 0.00 0.00 0.00 0.00 0.00 0.00 0.00 0.00 0.00 0.00 0.00 0.00 0.00 0.00 0.00 0.00 0.00 0.00 0.00 0.00 0.00 0.00 0.00 0.00 0.00 0.00 0.00 0.00 0.00 0.00 0.00 0.00 0.00 0.00
0.00 0.00 0.00 0.00 0.00 0.00 0.00 0.00 0.00 0.00 0.00 0.00 0.00 0.00 0.00 0.00 0.00 0.00 0.00 0.00 0.00 0.00 0.00 0.00 0.00 0.00 0.00 0.00 0.00 0.00 0.00 0.00 0.00 0.00 0.00 0.00 0.00 0.00 0.00 0.00 0.00 0.00 0.00 0.00 0.00
0.00 0.00 0.00 0.00 0.00 0.00 0.00 0.00 0.00 0.00 0.00 0.00 0.00 0.00 0.00 0.00 0.00 0.00 0.00 0.00 0.00 0.00 0.00 0.00 0.00 0.00 0.00 0.00 0.00 0.00 0.00 0.00 0.00 0.00 0.00 0.00 0.00 0.00 0.00 0.00 0.00 0.00 0.00 0.00 0.00
0.00 0.00 0.00 0.00 0.00 0.00 0.00 0.00 0.00 0.00 0.00 0.00 0.00 0.00 0.00 0.00 0.00 0.00 0.00 0.00 0.00 0.00 0.00 0.00 0.00 0.00 0.00 0.00 0.00 0.00 0.00 0.00 0.00 0.00 0.00 0.00 0.00 0.00 0.00 0.00 0.00 0.00 0.00 0.00 0.00
0.00 0.00 0.00 0.00 0.00 0.00 0.00 0.00 0.00 0.00 0.00 0.00 0.00 0.00 0.00 0.00 0.00 0.00 0.00 0.00 0.00 0.00 0.00 0.00 0.00 0.00 0.00 0.00 0.00 0.00 0.00 0.00 0.00 0.00 0.00 0.00 0.00 0.00 0.00 0.00 0.00 0.00 0.00 0.00 0.00
0.00 0.00 0.00 0.00 0.00 0.00 0.00 0.00 0.00 0.00 0.00 0.00 0.00 0.00 0.00 0.00 0.00 0.00 0.00 0.00 0.00 0.00 0.00 0.00 0.00 0.00 0.00 0.00 0.00 0.00 0.00 0.00 0.00 0.00 0.00 0.00 0.00 0.00 0.00 0.00 0.00 0.00 0.00 0.00 0.00
0.00 0.00 0.00 0.00 0.00 0.00 0.00 0.00 0.00 0.00 0.00 0.00 0.00 0.00 0.00 0.00 0.00 0.00 0.00 0.00 0.00 0.00 0.00 0.00 0.00 0.00 0.00 0.00 0.00 0.00 0.00 0.00 0.00 0.00 0.00 0.00 0.00 0.00 0.00 0.00 0.00 0.00 0.00 0.00 0.00
0.00 0.00 0.00 0.00 0.00 0.00 0.00 0.00 0.00 0.00 0.00 0.00 0.00 0.00 0.00 0.00 0.00 0.00 0.00 0.00 0.00 0.00 0.00 0.00 0.00 0.00 0.00 0.00 0.00 0.00 0.00 0.00 0.00 0.00 0.00 0.00 0.00 0.00 0.01 0.00 0.00 0.00 0.00 0.00 0.00
0.00 0.00 0.00 0.00 0.00 0.00 0.00 0.00 0.00 0.00 0.00 0.00 0.00 0.00 0.00 0.00 0.00 0.00 0.00 0.00 0.00 0.00 0.00 0.00 0.00 0.00 0.00 0.00 0.00 0.00 0.00 0.00 0.00 0.00 0.00 0.00 0.00 0.00 0.00 0.00 0.00 0.00 0.00 0.00 0.00
0.00 0.00 0.00 0.00 0.00 0.00 0.00 0.00 0.00 0.00 0.00 0.00 0.00 0.00 0.00 0.00 0.00 0.00 0.00 0.00 0.00 0.00 0.00 0.00 0.00 0.00 0.00 0.00 0.00 0.00 0.00 0.00 0.00 0.00 0.00 0.00 0.00 0.00 0.00 0.00 0.00 0.01 0.02 0.00 0.00
0.00 0.00 0.00 0.00 0.00 0.00 0.00 0.00 0.00 0.00 0.00 0.00 0.00 0.00 0.00 0.00 0.00 0.00 0.00 0.00 0.00 0.00 0.00 0.00 0.00 0.00 0.00 0.00 0.00 0.00 0.00 0.00 0.00 0.00 0.00 0.00 0.00 0.00 0.00 0.00 0.00 0.01 0.03 0.00 0.00
0.00 0.00 0.00 0.00 0.00 0.00 0.00 0.00 0.00 0.00 0.00 0.00 0.00 0.00 0.00 0.00 0.00 0.00 0.00 0.00 0.00 0.00 0.00 0.00 0.00 0.00 0.00 0.00 0.00 0.00 0.00 0.00 0.00 0.00 0.00 0.00 0.00 0.00 0.00 0.00 0.00 0.00 0.00 0.00 0.00
0.00 0.00 0.00 0.00 0.00 0.00 0.00 0.00 0.00 0.00 0.00 0.00 0.00 0.00 0.00 0.00 0.00 0.00 0.00 0.00 0.00 0.00 0.00 0.00 0.00 0.00 0.00 0.00 0.00 0.00 0.00 0.00 0.00 0.00 0.00 0.00 0.00 0.00 0.00 0.00 0.00 0.00 0.00 0.00 0.00
MSLP
1016.28 1016.03 1015.76 1015.50 1015.28 1015.02 1014.74 1014.39 1014.11 1013.72 1013.38 1012.96 1012.52 1012.12 1011.67 1011.17 1009.95 1008.62 1006.96 1006.21 1005.86 1005.74 1005.59 1004.16 1002.68 1001.40 1000.69 1000.43 1000.72 1002.01 1002.85 1002.44 1002.73 1002.92 1003.31 1003.61 1003.60 1003.75 1003.97 1004.53 1005.34 1006.95 1006.73 1005.98 1006.40
1016.29 1015.99 1015.74 1015.47 1015.24 1014.97 1014.66 1014.36 1014.04 1013.69 1013.26 1012.92 1012.49 1011.99 1011.59 1011.13 1009.52 1006.96 1006.17 1005.77 1005.71 1005.78 1005.12 1003.24 1001.67 1000.94 1000.31 999.97 1000.53 1002.20 1001.97 1002.00 1002.03 1002.13 1002.61 1003.21 1003.40 1003.51 1004.27 1005.66 1007.54 1007.26 1008.01 1006.71 1006.84
1016.32 1015.97 1015.73 1015.42 1015.14 1014.88 1014.60 1014.28 1013.97 1013.67 1013.28 1012.79 1012.39 1011.91 1011.53 1011.21 1008.47 1005.53 1005.84 1005.69 1005.72 1005.81 1005.13 1003.77 1002.12 1000.93 1000.07 999.80 1000.23 1000.76 1001.44 1001.45 1001.70 1002.38 1002.28 1002.62 1002.80 1003.17 1004.34 1005.56 1006.33 1008.04 1008.16 1007.59 1007.16
1016.32 1016.03 1015.71 1015.40 1015.05 1014.77 1014.50 1014.19 1013.85 1013.53 1013.15 1012.77 1012.29 1011.76 1011.22 1010.36 1006.76 1005.26 1005.60 1005.68 1005.69 1005.55 1004.80 1003.26 1001.68 1000.55 999.68 999.74 1000.14 1001.07 1001.53 1001.59 1001.84 1001.89 1001.75 1001.99 1002.57 1002.58 1003.32 1004.26 1004.58 1006.17 1006.87 1006.46 1006.69
1016.32 1016.03 1015.66 1015.31 1014.97 1014.63 1014.36 1014.06 1013.76 1013.43 1013.00 1012.58 1012.23 1011.81 1010.26 1008.19 1005.19 1004.93 1005.34 1005.48 1005.31 1005.12 1004.23 1002.56 1001.47 1000.65 1000.17 1000.01 1000.16 1000.81 1001.20 1001.17 1001.35 1001.45 1001.57 1001.84 1001.98 1002.30 1002.53 1003.10 1003.84 1005.16 1005.07 1005.75 1006.00
1016.24 1015.89 1015.52 1015.16 1014.85 1014.48 1014.20 1013.94 1013.61 1013.25 1012.89 1012.43 1012.10 1011.80 1010.22 1006.53 1004.07 1004.00 1004.31 1004.74 1004.42 1004.17 1003.44 1002.51 1001.74 1001.55 1000.92 1000.36 1000.47 1000.82 1001.01 1000.85 1000.86 1000.89 1000.88 1001.18 1001.58 1001.86 1002.15 1002.65 1003.29 1004.00 1004.47 1005.14 1005.54
1016.09 1015.72 1015.38 1015.03 1014.70 1014.36 1014.01 1013.75 1013.42 1013.02 1012.66 1012.30 1012.10 1011.41 1008.48 1005.13 1003.89 1003.77 1003.96 1003.92 1003.77 1003.43 1002.80 1002.19 1002.30 1001.96 1001.30 1000.46 1000.68 1000.59 1000.46 1000.56 1000.84 1000.82 1000.61 1001.06 1001.58 1001.34 1001.62 1002.02 1002.66 1003.26 1003.87 1004.37 1004.86
1015.93 1015.54 1015.17 1014.86 1014.52 1014.21 1013.84 1013.50 1013.15 1012.71 1012.33 1012.01 1011.96 1010.75 1006.53 1003.98 1003.76 1003.86 1003.59 1003.39 1003.51 1003.23 1003.13 1002.75 1002.84 1002.45 1001.76 1000.96 1000.66 1000.45 1000.09 1000.11 1000.59 1000.67 1000.63 1000.57 1001.20 1001.06 1001.22 1001.55 1001.86 1002.31 1003.21 1004.01 1004.59
1015.69 1015.35 1015.01 1014.70 1014.36 1014.03 1013.63 1013.23 1012.71 1012.29 1011.98 1011.77 1011.13 1009.30 1005.05 1004.39 1003.95 1003.68 1003.36 1003.05 1003.12 1003.20 1003.09 1003.12 1003.27 1002.45 1001.30 1000.66 1000.12 999.72 999.53 999.97 999.95 1000.27 1000.51 1000.28 1000.08 999.93 1000.60 1001.03 1001.24 1001.63 1002.41 1003.47 1004.34
1015.42 1015.07 1014.79 1014.50 1014.22 1013.88 1013.35 1012.93 1011.91 1011.95 1011.29 1010.33 1009.32 1007.82 1004.51 1002.98 1002.86 1003.08 1003.03 1002.83 1002.65 1002.74 1002.82 1002.91 1002.71 1001.87 1000.92 999.97 999.71 999.53 999.34 999.33 999.67 999.90 1000.23 1000.11 999.60 999.28 999.85 1000.13 1000.49 1000.82 1001.65 1002.80 1003.64
1015.19 1014.83 1014.55 1014.31 1014.10 1013.89 1012.90 1011.63 1011.42 1010.27 1008.78 1006.15 1004.94 1003.83 1002.63 1002.38 1002.55 1002.67 1002.86 1002.99 1002.72 1002.53 1002.22 1001.94 1001.77 1000.71 999.68 999.30 999.43 1000.02 1000.02 999.89 999.73 999.58 1000.03 999.74 999.23 999.03 998.91 999.08 999.53 1000.19 1000.79 1001.76 1002.67
1014.97 1014.64 1014.36 1014.15 1014.01 1013.88 1013.55 1009.75 1006.29 1005.67 1005.05 1004.76 1003.91 1002.90 1002.50 1002.48 1002.36 1002.36 1002.61 1002.78 1002.40 1001.95 1001.63 1001.30 1000.60 1000.05 999.68 999.50 999.95 1000.16 999.98 999.74 999.30 999.34 999.49 999.17 998.57 998.29 998.07 998.05 998.54 999.31 999.99 1000.57 1001.61
1014.74 1014.44 1014.20 1014.04 1013.88 1013.54 1010.67 1007.58 1005.93 1005.34 1004.02 1002.56 1002.70 1002.36 1002.28 1002.35 1001.43 1001.43 1002.33 1002.24 1001.65 1001.39 1000.98 1000.25 999.93 999.68 999.96 999.95 999.99 999.89 999.69 999.40 999.20 999.39 998.97 998.41 997.81 997.72 997.82 998.00 998.28 998.55 998.94 999.56 1000.28
1014.48 1014.25 1014.03 1013.96 1014.05 1009.69 1008.55 1006.84 1006.30 1005.55 1003.62 1001.48 1001.60 1001.32 1001.44 1001.75 1000.97 1000.58 1001.58 1001.86 1001.41 1000.99 1000.38 1000.00 999.76 999.59 999.98 999.91 999.79 999.07 998.69 998.94 999.47 999.64 998.78 998.08 997.57 997.65 997.71 997.80 997.65 997.55 997.90 998.40 999.32
1014.14 1013.93 1013.84 1014.15 1012.00 1007.90 1005.77 1005.70 1005.57 1005.29 1002.14 1000.93 1000.72 1000.54 1000.91 1001.14 1000.47 1000.95 1001.24 1001.58 1001.10 1000.40 1000.61 999.40 999.51 999.61 999.80 999.43 999.26 999.20 999.05 999.40 999.34 999.34 998.67 997.04 997.16 997.41 997.51 997.20 997.21 997.07 996.97 997.46 998.44
1013.74 1013.58 1013.65 1013.05 1011.58 1007.74 1005.88 1005.72 1005.59 1004.19 1000.29 999.75 1000.11 1000.52 1000.65 1000.82 1000.20 1000.82 1001.34 1001.46 1000.90 1000.43 1000.17 999.77 999.52 999.42 999.25 999.10 999.48 999.50 999.37 999.13 998.94 998.78 998.25 997.26 996.94 997.13 997.22 997.31 997.30 997.22 997.10 997.29 998.09
1013.22 1013.18 1013.28 1010.53 1007.27 1005.91 1005.85 1005.42 1004.04 1001.45 998.99 999.08 999.52 999.92 1000.00 1000.08 999.94 1000.58 1001.01 1001.12 1000.34 999.91 999.13 998.90 998.74 998.96 999.28 999.27 999.02 999.36 999.08 998.20 997.97 997.53 998.30 997.43 996.93 996.30 997.09 997.26 997.01 997.27 997.41 997.75 998.30
1012.63 1012.65 1011.24 1009.62 1007.94 1006.62 1005.84 1004.80 1002.23 999.16 997.62 997.90 998.37 999.32 999.26 999.17 999.44 1000.06 1000.17 1000.03 999.93 999.48 998.44 997.66 997.92 997.99 998.43 998.82 998.45 998.42 998.36 997.94 997.37 997.46 997.27 997.14 996.66 996.83 996.92 997.15 997.16 997.21 997.58 998.13 998.41
1012.67 1011.47 1009.32 1007.36 1007.92 1006.66 1005.25 1003.09 1000.17 998.08 997.32 997.62 998.02 998.39 998.34 998.50 998.79 999.17 999.37 998.75 998.94 999.35 999.48 998.44 997.79 998.34 998.60 998.51 998.57 998.06 998.01 997.72 997.52 997.03 996.98 996.95 998.01 997.12 997.37 997.30 997.22 997.64 997.99 998.44 998.76
1011.33 1008.30 1006.05 1005.70 1006.42 1006.05 1004.53 1001.83 999.73 998.58 998.26 997.91 997.63 997.81 997.49 997.93 998.74 998.79 998.74 999.13 999.60 1000.37 1000.47 999.61 999.10 997.99 998.09 998.69 998.57 998.46 998.27 998.23 997.82 997.86 997.77 997.75 998.19 999.02 998.62 998.52 998.77 998.52 998.89 999.49 999.82
1010.96 1006.58 1004.74 1005.17 1005.49 1004.90 1002.87 1000.78 999.18 999.22 999.35 998.56 997.73 997.73 997.60 998.30 998.19 998.69 998.80 1000.01 1000.47 1000.58 1000.96 1000.76 1000.15 999.21 998.21 998.30 997.92 997.84 998.39 998.35 998.25 998.45 998.27 998.18 999.23 999.63 1000.47 1000.00 1000.31 1001.17 1000.52 1001.16 1001.53
1008.83 1005.04 1004.45 1004.66 1004.58 1003.29 1001.82 1000.28 1000.10 999.36 999.65 999.09 998.71 997.83 997.73 998.13 998.55 998.93 999.31 1000.66 1001.67 1001.86 1001.82 1001.51 1001.01 1000.08 999.15 998.29 997.90 997.64 997.91 998.32 998.62 999.09 998.98 999.45 1000.00 1000.42 1001.53 1001.76 1001.27 1001.87 1002.23 1002.93 1003.43
1007.72 1004.23 1004.17 1004.10 1002.88 1001.67 1000.83 1000.38 1000.39 999.87 999.70 999.44 999.22 999.24 999.18 999.29 999.74 999.84 1000.17 1001.86 1002.42 1002.72 1003.75 1003.35 1001.88 1000.90 999.73 998.47 998.39 998.10 998.13 998.47 999.02 998.98 999.54 1000.01 1000.75 1001.30 1001.94 1002.51 1002.69 1003.24 1003.46 1003.71 1004.26
1007.94 1003.77 1003.69 1003.74 1002.92 1001.71 1000.21 1000.47 1000.63 1000.83 1000.10 1000.23 1000.10 1000.35 1000.37 1000.42 1000.57 1001.02 1000.98 1001.83 1003.03 1003.64 1004.67 1004.64 1003.44 1002.59 1001.47 1000.22 1000.15 999.83 999.60 999.83 1000.05 1000.11 1000.17 1000.29 1000.38 1001.84 1001.59 1001.99 1002.61 1003.86 1005.00 1004.37 1005.45
1007.32 1003.85 1002.27 1002.48 1002.08 1001.13 1000.45 1000.27 1000.28 1000.75 1001.30 1001.40 1001.22 1001.40 1001.12 1001.15 1000.94 1001.13 1001.52 1001.91 1002.65 1004.17 1004.49 1004.57 1003.69 1003.13 1002.45 1001.96 1001.43 1001.12 1000.91 1000.79 1000.83 1000.98 1001.15 1001.36 1001.52 1001.79 1002.63 1003.24 1004.13 1005.01 1005.77 1006.04 1006.29
1007.87 1006.10 1004.67 1002.76 1002.36 1001.81 1001.35 1001.27 1000.96 1000.78 1001.54 1001.62 1001.93 1001.81 1002.30 1002.62 1002.46 1002.33 1002.53 1002.87 1003.30 1003.74 1004.14 1004.04 1003.90 1003.83 1003.32 1002.82 1002.13 1001.40 1000.98 1001.05 1001.26 1001.41 1001.63 1001.98 1002.51 1003.55 1004.21 1004.90 1005.60 1006.20 1006.54 1006.75 1007.09
1009.99 1008.10 1006.51 1004.34 1002.70 1002.25 1001.62 1001.65 1001.92 1002.15 1002.85 1003.07 1003.12 1003.14 1003.27 1004.02 1003.81 1003.93 1004.15 1003.89 1003.74 1003.87 1004.18 1004.49 1004.59 1004.48 1003.80 1003.33 1002.49 1001.88 1001.30 1001.44 1001.54 1001.78 1002.38 1002.98 1004.31 1004.98 1005.67 1006.08 1006.51 1006.71 1007.05 1007.62 1007.95
Thickness
5740 5744 5747 5750 5753 5756 5758 5762 5764 5768 5770 5773 5776 5781 5786 5793 5806 5820 5825 5839 5847 5850 5853 5861 5870 5877 5883 5874 5877 5863 5809 5812 5817 5815 5816 5835 5827 5843 5849 5835 5835 5814 5793 5831 5838
5739 5743 5747 5750 5753 5756 5759 5762 5765 5768 5772 5775 5778 5782 5787 5793 5808 5822 5840 5846 5848 5849 5850 5856 5858 5871 5863 5872 5869 5830 5821 5823 5843 5842 5829 5833 5832 5836 5828 5813 5799 5806 5807 5830 5830
5739 5743 5746 5750 5754 5757 5760 5763 5766 5769 5772 5777 5780 5784 5788 5792 5808 5829 5842 5845 5848 5848 5852 5859 5866 5866 5859 5873 5863 5852 5825 5844 5845 5843 5846 5836 5837 5844 5817 5802 5810 5773 5787 5811 5822
5738 5742 5746 5750 5755 5758 5761 5765 5768 5771 5775 5779 5783 5788 5793 5801 5791 5839 5845 5846 5848 5850 5850 5854 5859 5852 5859 5853 5865 5829 5844 5845 5844 5850 5848 5839 5845 5839 5835 5827 5839 5822 5811 5825 5824
5737 5741 5746 5750 5755 5760 5763 5767 5770 5774 5778 5783 5786 5790 5805 5807 5821 5851 5850 5850 5852 5850 5845 5850 5847 5853 5843 5857 5859 5839 5842 5850 5853 5852 5851 5850 5841 5838 5840 5848 5849 5831 5836 5829 5827
5737 5741 5746 5751 5756 5761 5765 5769 5773 5777 5781 5786 5789 5793 5802 5798 5859 5862 5861 5856 5855 5852 5851 5856 5850 5856 5848 5852 5846 5852 5849 5851 5856 5855 5857 5844 5841 5843 5845 5853 5845 5840 5836 5833 5830
5737 5741 5746 5752 5757 5762 5767 5771 5776 5781 5785 5789 5791 5798 5808 5821 5863 5866 5864 5859 5863 5860 5850 5864 5863 5849 5853 5847 5863 5858 5840 5850 5850 5853 5851 5854 5826 5832 5852 5854 5842 5839 5836 5835 5835
5737 5741 5747 5752 5758 5763 5769 5774 5779 5784 5789 5792 5794 5802 5812 5862 5866 5861 5866 5861 5867 5869 5862 5868 5865 5852 5848 5864 5857 5844 5849 5825 5845 5852 5855 5850 5803 5839 5857 5850 5843 5844 5839 5834 5832
5738 5742 5747 5754 5760 5765 5771 5777 5784 5788 5792 5795 5801 5808 5819 5861 5848 5862 5867 5853 5860 5862 5864 5866 5855 5842 5852 5838 5833 5849 5826 5828 5837 5856 5848 5845 5827 5855 5860 5851 5845 5846 5843 5836 5832
5739 5743 5749 5755 5760 5767 5774 5780 5789 5792 5799 5806 5813 5805 5836 5839 5858 5863 5871 5866 5853 5852 5846 5843 5838 5829 5839 5838 5808 5824 5832 5842 5831 5848 5846 5837 5839 5860 5859 5857 5852 5853 5848 5840 5835
5739 5744 5750 5756 5761 5767 5777 5792 5793 5795 5808 5822 5831 5834 5848 5864 5870 5857 5865 5854 5852 5842 5819 5839 5819 5815 5841 5859 5854 5838 5832 5828 5842 5857 5840 5838 5842 5853 5866 5863 5858 5856 5852 5846 5842
5739 5745 5750 5757 5762 5767 5773 5800 5826 5832 5815 5835 5842 5848 5858 5861 5836 5849 5865 5833 5832 5817 5834 5827 5816 5844 5856 5856 5842 5834 5827 5828 5850 5858 5849 5844 5844 5862 5871 5872 5869 5862 5858 5856 5852
5738 5745 5751 5757 5762 5770 5795 5816 5841 5843 5817 5838 5846 5843 5846 5852 5840 5842 5850 5839 5829 5822 5827 5823 5844 5855 5844 5838 5830 5833 5828 5832 5835 5847 5856 5850 5843 5855 5869 5875 5875 5874 5873 5871 5862
5738 5744 5751 5756 5762 5801 5801 5828 5836 5841 5798 5824 5832 5844 5852 5850 5835 5867 5860 5841 5830 5819 5832 5833 5853 5844 5834 5829 5838 5825 5861 5851 5836 5826 5812 5860 5815 5845 5858 5858 5867 5874 5875 5876 5872
5737 5744 5750 5754 5775 5804 5828 5839 5842 5829 5771 5832 5838 5874 5857 5836 5846 5842 5865 5842 5819 5828 5830 5830 5836 5832 5824 5835 5851 5834 5858 5845 5842 5830 5833 5852 5836 5838 5860 5854 5862 5876 5886 5884 5880
5738 5744 5749 5760 5774 5809 5831 5836 5828 5785 5783 5825 5843 5831 5829 5835 5841 5845 5839 5850 5850 5833 5838 5837 5860 5851 5845 5855 5852 5856 5845 5846 5846 5836 5810 5849 5847 5831 5842 5850 5859 5873 5882 5886 5882
5739 5745 5750 5776 5800 5825 5830 5818 5785 5781 5850 5824 5824 5833 5829 5823 5831 5829 5820 5816 5813 5804 5817 5839 5844 5857 5857 5836 5854 5845 5832 5809 5805 5812 5793 5857 5844 5850 5858 5866 5873 5866 5873 5878 5879
5741 5747 5766 5783 5801 5817 5816 5794 5774 5830 5848 5859 5846 5835 5820 5835 5833 5828 5823 5817 5838 5836 5834 5835 5817 5851 5861 5843 5837 5842 5841 5817 5790 5802 5817 5853 5833 5840 5873 5878 5880 5877 5874 5874 5874
5739 5755 5777 5800 5800 5813 5799 5780 5806 5840 5863 5847 5845 5825 5829 5842 5841 5834 5829 5840 5848 5843 5811 5823 5832 5858 5857 5860 5854 5842 5829 5863 5834 5851 5836 5849 5835 5872 5870 5871 5872 5866 5865 5863 5870
5753 5778 5795 5811 5810 5804 5789 5784 5820 5849 5850 5849 5826 5841 5830 5836 5827 5832 5835 5844 5834 5838 5844 5830 5807 5858 5858 5858 5857 5845 5860 5819 5835 5796 5792 5826 5818 5804 5836 5840 5844 5851 5848 5852 5859
5752 5775 5804 5814 5812 5793 5783 5809 5836 5844 5842 5834 5839 5835 5841 5826 5840 5830 5832 5831 5836 5833 5837 5829 5818 5823 5854 5836 5834 5842 5827 5837 5841 5831 5804 5805 5797 5840 5828 5837 5834 5826 5836 5839 5839
5767 5768 5806 5814 5778 5795 5795 5822 5811 5832 5839 5836 5842 5848 5846 5842 5831 5831 5824 5815 5829 5825 5806 5823 5812 5797 5817 5854 5866 5861 5844 5840 5810 5799 5821 5814 5812 5837 5806 5811 5824 5820 5823 5823 5822
5765 5789 5808 5807 5774 5795 5814 5813 5820 5822 5825 5826 5826 5834 5838 5824 5806 5822 5823 5818 5821 5812 5791 5803 5801 5781 5801 5839 5852 5839 5846 5844 5836 5835 5806 5795 5806 5813 5819 5811 5810 5801 5809 5808 5809
5766 5773 5788 5794 5800 5795 5808 5802 5800 5820 5821 5823 5819 5822 5815 5809 5818 5802 5808 5811 5813 5805 5790 5794 5789 5780 5770 5794 5810 5800 5813 5819 5812 5792 5796 5804 5814 5798 5808 5801 5807 5792 5787 5790 5789
5770 5777 5799 5774 5789 5802 5811 5810 5802 5794 5809 5812 5803 5804 5803 5790 5801 5799 5806 5806 5809 5787 5792 5788 5771 5784 5792 5798 5801 5797 5796 5800 5793 5796 5778 5790 5792 5805 5795 5790 5782 5779 5778 5769 5777
5754 5760 5776 5786 5793 5792 5786 5791 5794 5804 5796 5794 5789 5800 5796 5782 5787 5781 5789 5789 5782 5792 5786 5793 5766 5775 5770 5786 5790 5786 5799 5797 5792 5792 5789 5787 5779 5782 5779 5776 5762 5759 5756 5754 5759
5749 5763 5764 5769 5786 5785 5789 5789 5788 5790 5791 5791 5789 5785 5781 5776 5791 5791 5790 5792 5790 5781 5775 5771 5763 5756 5747 5774 5777 5763 5783 5786 5787 5792 5780 5758 5754 5759 5749 5749 5745 5745 5745 5736 5735